User: anonymous   Login
Location: The Saddle
(36.8333°N, 80.3417°W)
Time: 21:03:24
(UTC-05:00)
Language:

Courier 1B - Orbit

View from above orbital plane
View from above orbital plane
View from above satellite
View from above satellite

Ground track
Ground track

The orbit data is extracted from the following two-line orbital elements,

1 00058U 60013A   22027.54295643  .00000090  00000-0  40449-5 0  9999
2 00058  28.3302 346.0140 0164960 266.3704  91.7962 13.46330257 18057
Epoch (UTC): 27 January 2022 13:01:51
Eccentricity: 0.0164960
inclination: 28.3302°
perigee height: 962 km
apogee height: 1209 km
right ascension of ascending node: 346.0140°
argument of perigee: 266.3704°
revolutions per day: 13.46330257
mean anomaly at epoch: 91.7962°
orbit number at epoch: 1805

The dashed part of the orbit path shows where the satellite is in the earth's shadow,  

DLR